GTI863 KPDX-KLAX

Flight info

Callsign GTI863
Flight time 1h 49m
Altitude 39000
Route HRMNS6 HYJOE DCT JAGWA DCT BURGL IRNMN2
Aircraft B748/H-VGDW/C

Departure

Time 2026-04-26 03:33
Airport Portland International Airport (KPDX)

Arrival

Time 2026-04-26 05:23
Airport Los Angeles International Airport (KLAX)
Time Latitude Longitude Altitude Speed Heading
2026-04-26 03:15 45.58248 -122.61132 39 ft 0 kts 45°
2026-04-26 03:22 45.58247 -122.61133 39 ft 3 kts 45°
2026-04-26 03:22 45.58234 -122.61153 38 ft 3 kts 45°
2026-04-26 03:23 45.58221 -122.61172 39 ft 3 kts 45°
2026-04-26 03:23 45.58205 -122.61193 37 ft 3 kts 12°
2026-04-26 03:23 45.58185 -122.61193 37 ft 3 kts 323°
2026-04-26 03:23 45.58182 -122.61191 37 ft 0 kts 319°
2026-04-26 03:24 45.58183 -122.61193 37 ft 0 kts 319°
2026-04-26 03:28 45.58188 -122.61201 37 ft 5 kts 312°
2026-04-26 03:28 45.58238 -122.61285 39 ft 17 kts 313°
2026-04-26 03:28 45.58316 -122.61332 40 ft 10 kts 11°
2026-04-26 03:28 45.58382 -122.61264 41 ft 15 kts 44°
2026-04-26 03:29 45.58475 -122.61131 43 ft 23 kts 45°
2026-04-26 03:29 45.58603 -122.60950 39 ft 23 kts 47°
2026-04-26 03:29 45.58662 -122.60728 37 ft 27 kts 90°
2026-04-26 03:29 45.58658 -122.60494 39 ft 15 kts 91°
2026-04-26 03:30 45.58653 -122.60320 42 ft 20 kts 96°
2026-04-26 03:30 45.58606 -122.60134 44 ft 21 kts 118°
2026-04-26 03:30 45.58524 -122.59924 44 ft 27 kts 119°
2026-04-26 03:30 45.58432 -122.59687 43 ft 26 kts 119°
2026-04-26 03:31 45.58337 -122.59440 44 ft 30 kts 118°
2026-04-26 03:31 45.58227 -122.59159 43 ft 30 kts 119°
2026-04-26 03:31 45.58147 -122.58960 45 ft 21 kts 119°
2026-04-26 03:31 45.58076 -122.58781 46 ft 23 kts 119°
2026-04-26 03:32 45.58007 -122.58599 44 ft 16 kts 119°
2026-04-26 03:32 45.57993 -122.58482 44 ft 7 kts 68°
2026-04-26 03:32 45.58031 -122.58434 43 ft 7 kts 20°
2026-04-26 03:32 45.58073 -122.58444 43 ft 6 kts 328°
2026-04-26 03:33 45.58096 -122.58501 43 ft 23 kts 297°
2026-04-26 03:33 45.58331 -122.59111 41 ft 124 kts 299°
2026-04-26 03:33 45.58900 -122.60581 176 ft 199 kts 300°
2026-04-26 03:33 45.59586 -122.62318 873 ft 206 kts 301°
2026-04-26 03:34 45.60350 -122.64071 1870 ft 206 kts 308°
2026-04-26 03:34 45.61184 -122.65843 2576 ft 233 kts 306°
2026-04-26 03:34 45.62110 -122.68031 3214 ft 277 kts 303°
2026-04-26 03:34 45.63118 -122.70582 3872 ft 318 kts 301°
2026-04-26 03:35 45.64288 -122.73529 4555 ft 359 kts 302°
2026-04-26 03:35 45.65556 -122.76647 5207 ft 360 kts 302°
2026-04-26 03:35 45.66648 -122.79785 5827 ft 345 kts 289°
2026-04-26 03:35 45.66957 -122.83088 6423 ft 334 kts 268°
2026-04-26 03:36 45.66479 -122.86285 6803 ft 330 kts 251°
2026-04-26 03:36 45.65294 -122.89144 6852 ft 339 kts 229°
2026-04-26 03:36 45.63434 -122.91217 6851 ft 347 kts 208°
2026-04-26 03:36 45.61098 -122.92245 6859 ft 354 kts 187°
2026-04-26 03:37 45.58652 -122.92060 6850 ft 358 kts 166°
2026-04-26 03:37 45.56284 -122.90875 6853 ft 361 kts 156°
2026-04-26 03:37 45.54033 -122.89348 6916 ft 362 kts 150°
2026-04-26 03:37 45.51920 -122.87489 7445 ft 348 kts 146°
2026-04-26 03:38 45.49915 -122.85633 7949 ft 337 kts 147°
2026-04-26 03:38 45.47955 -122.83947 8449 ft 327 kts 148°
2026-04-26 03:38 45.46006 -122.82327 8949 ft 317 kts 148°
2026-04-26 03:38 45.44148 -122.80746 9444 ft 308 kts 147°
2026-04-26 03:39 45.42334 -122.79176 9940 ft 299 kts 147°
2026-04-26 03:39 45.40601 -122.77688 10391 ft 290 kts 148°
2026-04-26 03:39 45.40180 -122.77329 10504 ft 287 kts 148°
2026-04-26 03:40 45.38731 -122.76101 10938 ft 295 kts 148°
2026-04-26 03:40 45.36891 -122.74523 11494 ft 326 kts 148°
2026-04-26 03:40 45.34848 -122.72777 12093 ft 357 kts 148°
2026-04-26 03:40 45.32619 -122.70879 12699 ft 387 kts 148°
2026-04-26 03:41 45.30213 -122.68834 13320 ft 416 kts 148°
2026-04-26 03:41 45.27709 -122.66705 13891 ft 425 kts 149°
2026-04-26 03:41 45.25158 -122.64546 14405 ft 424 kts 149°
2026-04-26 03:41 45.22647 -122.62418 14917 ft 424 kts 149°
2026-04-26 03:42 45.20112 -122.60264 15429 ft 423 kts 149°
2026-04-26 03:42 45.17573 -122.58110 15949 ft 423 kts 149°
2026-04-26 03:42 45.15065 -122.55989 16465 ft 423 kts 149°
2026-04-26 03:42 45.12533 -122.53850 16983 ft 422 kts 149°
2026-04-26 03:43 45.10020 -122.51727 17524 ft 422 kts 149°
2026-04-26 03:43 45.07522 -122.49618 18050 ft 422 kts 149°
2026-04-26 03:43 45.04984 -122.47481 18533 ft 421 kts 149°
2026-04-26 03:43 45.02487 -122.45379 19011 ft 420 kts 149°
2026-04-26 03:44 44.99963 -122.43254 19476 ft 419 kts 149°
2026-04-26 03:44 44.97440 -122.41132 20002 ft 427 kts 148°
2026-04-26 03:44 44.94837 -122.39052 20779 ft 439 kts 155°
2026-04-26 03:44 44.91922 -122.37507 21588 ft 451 kts 161°
2026-04-26 03:45 44.88911 -122.36174 22404 ft 460 kts 163°
2026-04-26 03:45 44.85813 -122.34820 23249 ft 469 kts 161°
2026-04-26 03:45 44.82724 -122.33355 23994 ft 476 kts 160°
2026-04-26 03:45 44.79594 -122.31839 24715 ft 482 kts 161°
2026-04-26 03:46 44.76349 -122.30332 25460 ft 487 kts 161°
2026-04-26 03:46 44.73131 -122.28872 26220 ft 492 kts 161°
2026-04-26 03:46 44.69879 -122.27369 26983 ft 496 kts 161°
2026-04-26 03:47 44.63294 -122.24291 28600 ft 501 kts 161°
2026-04-26 03:47 44.59964 -122.22762 29442 ft 504 kts 161°
2026-04-26 03:47 44.56647 -122.21236 30242 ft 505 kts 161°
2026-04-26 03:47 44.53297 -122.19685 30958 ft 507 kts 161°
2026-04-26 03:48 44.49963 -122.18145 31718 ft 508 kts 161°
2026-04-26 03:48 44.46570 -122.16585 32506 ft 508 kts 161°
2026-04-26 03:48 44.43247 -122.15061 33283 ft 508 kts 161°
2026-04-26 03:48 44.39868 -122.13509 34060 ft 508 kts 161°
2026-04-26 03:49 44.36506 -122.11966 34737 ft 508 kts 162°
2026-04-26 03:49 44.33143 -122.10425 35428 ft 507 kts 162°
2026-04-26 03:49 44.29813 -122.08904 36138 ft 506 kts 162°
2026-04-26 03:49 44.26449 -122.07367 36875 ft 504 kts 162°
2026-04-26 03:50 44.23165 -122.05867 37623 ft 501 kts 163°
2026-04-26 03:50 44.19848 -122.04355 38399 ft 499 kts 163°
2026-04-26 03:50 44.16564 -122.02861 38791 ft 503 kts 163°
2026-04-26 03:50 44.13178 -122.01323 38856 ft 514 kts 163°
2026-04-26 03:51 44.09758 -121.99770 38850 ft 526 kts 163°
2026-04-26 03:51 44.06209 -121.98160 38872 ft 538 kts 163°
2026-04-26 03:51 44.02696 -121.96567 38859 ft 534 kts 163°
2026-04-26 03:52 43.95647 -121.93379 38853 ft 529 kts 163°
2026-04-26 03:52 43.88672 -121.90234 38847 ft 528 kts 163°
2026-04-26 03:53 43.81570 -121.87751 38867 ft 526 kts 173°
2026-04-26 03:53 43.74310 -121.86562 38857 ft 525 kts 174°
2026-04-26 03:54 43.67113 -121.84890 38846 ft 525 kts 172°
2026-04-26 03:54 43.59907 -121.83444 38846 ft 525 kts 174°
2026-04-26 03:55 43.52685 -121.81904 38837 ft 525 kts 173°
2026-04-26 03:55 43.45441 -121.80389 38839 ft 525 kts 173°
2026-04-26 03:56 43.38238 -121.78894 38828 ft 526 kts 173°
2026-04-26 03:56 43.31015 -121.77377 38819 ft 526 kts 173°
2026-04-26 03:57 43.24968 -121.76133 38823 ft 526 kts 173°
2026-04-26 03:57 43.16532 -121.74373 38798 ft 527 kts 173°
2026-04-26 03:58 43.09290 -121.72881 38798 ft 526 kts 173°
2026-04-26 03:58 43.03266 -121.71635 38786 ft 526 kts 173°
2026-04-26 03:59 42.96020 -121.70144 38782 ft 527 kts 174°
2026-04-26 03:59 42.88790 -121.68658 38779 ft 526 kts 174°
2026-04-26 04:00 42.81533 -121.67171 38767 ft 526 kts 174°
2026-04-26 04:00 42.74323 -121.65696 38776 ft 526 kts 174°
2026-04-26 04:01 42.67085 -121.64221 38773 ft 527 kts 174°
2026-04-26 04:01 42.59839 -121.62745 38774 ft 526 kts 174°
2026-04-26 04:02 42.52589 -121.61274 38765 ft 527 kts 174°
2026-04-26 04:02 42.45354 -121.59808 38767 ft 526 kts 174°
2026-04-26 04:03 42.38113 -121.58345 38765 ft 527 kts 174°
2026-04-26 04:03 42.30859 -121.56882 38763 ft 526 kts 174°
2026-04-26 04:04 42.23605 -121.55423 38766 ft 526 kts 174°
2026-04-26 04:04 42.16366 -121.53971 38794 ft 527 kts 174°
2026-04-26 04:05 42.09163 -121.52528 38792 ft 526 kts 174°
2026-04-26 04:05 42.01937 -121.51085 38780 ft 525 kts 174°
2026-04-26 04:06 41.94710 -121.49644 38777 ft 525 kts 174°
2026-04-26 04:06 41.87452 -121.48202 38769 ft 525 kts 174°
2026-04-26 04:07 41.80247 -121.46772 38770 ft 523 kts 174°
2026-04-26 04:07 41.73103 -121.45358 38772 ft 519 kts 174°
2026-04-26 04:08 41.65975 -121.43951 38767 ft 518 kts 174°
2026-04-26 04:08 41.58849 -121.42546 38783 ft 518 kts 174°
2026-04-26 04:09 41.51701 -121.41141 38785 ft 518 kts 174°
2026-04-26 04:09 41.44595 -121.39747 38793 ft 518 kts 174°
2026-04-26 04:10 41.37470 -121.38352 38798 ft 516 kts 174°
2026-04-26 04:10 41.30370 -121.36966 38801 ft 516 kts 174°
2026-04-26 04:11 41.23283 -121.35584 38813 ft 517 kts 175°
2026-04-26 04:11 41.16182 -121.34204 38818 ft 517 kts 175°
2026-04-26 04:12 41.09066 -121.32823 38823 ft 517 kts 175°
2026-04-26 04:12 41.01969 -121.31449 38822 ft 515 kts 175°
2026-04-26 04:13 40.97252 -121.30538 38823 ft 515 kts 175°
2026-04-26 04:13 40.87789 -121.28707 38835 ft 515 kts 175°
2026-04-26 04:14 40.80666 -121.27344 38836 ft 515 kts 175°
2026-04-26 04:14 40.73612 -121.25987 38838 ft 516 kts 175°
2026-04-26 04:15 40.66506 -121.24626 38830 ft 511 kts 175°
2026-04-26 04:15 40.59457 -121.23281 38836 ft 512 kts 175°
2026-04-26 04:16 40.52432 -121.21940 38824 ft 511 kts 175°
2026-04-26 04:16 40.45444 -121.20611 38837 ft 508 kts 175°
2026-04-26 04:17 40.38468 -121.19286 38840 ft 508 kts 175°
2026-04-26 04:17 40.31456 -121.17957 38835 ft 508 kts 175°
2026-04-26 04:18 40.24491 -121.16642 38837 ft 507 kts 175°
2026-04-26 04:18 40.17499 -121.15321 38835 ft 508 kts 175°
2026-04-26 04:19 40.10515 -121.14007 38842 ft 508 kts 175°
2026-04-26 04:19 40.03515 -121.12691 38850 ft 508 kts 175°
2026-04-26 04:20 39.96485 -121.11373 38858 ft 507 kts 175°
2026-04-26 04:20 39.89507 -121.10067 38865 ft 507 kts 175°
2026-04-26 04:21 39.82522 -121.08762 38866 ft 507 kts 175°
2026-04-26 04:21 39.75561 -121.07465 38869 ft 506 kts 175°
2026-04-26 04:22 39.68602 -121.06171 38864 ft 505 kts 175°
2026-04-26 04:22 39.61677 -121.04886 38865 ft 505 kts 175°
2026-04-26 04:23 39.54692 -121.03591 38872 ft 505 kts 175°
2026-04-26 04:23 39.47736 -121.02306 38875 ft 505 kts 175°
2026-04-26 04:24 39.40816 -121.01029 38878 ft 505 kts 175°
2026-04-26 04:24 39.33845 -120.99746 38896 ft 506 kts 175°
2026-04-26 04:25 39.26870 -120.98463 38892 ft 506 kts 175°
2026-04-26 04:25 39.19920 -120.97189 38881 ft 504 kts 175°
2026-04-26 04:26 39.12961 -120.95916 38889 ft 507 kts 175°
2026-04-26 04:26 39.06030 -120.94648 38901 ft 504 kts 175°
2026-04-26 04:27 38.99070 -120.93381 38895 ft 504 kts 175°
2026-04-26 04:27 38.92156 -120.92122 38905 ft 505 kts 175°
2026-04-26 04:28 38.85196 -120.90859 38911 ft 504 kts 175°
2026-04-26 04:28 38.78244 -120.89599 38918 ft 505 kts 175°
2026-04-26 04:29 38.71263 -120.88336 38923 ft 505 kts 175°
2026-04-26 04:29 38.64319 -120.87083 38903 ft 506 kts 175°
2026-04-26 04:30 38.57350 -120.85828 38914 ft 505 kts 175°
2026-04-26 04:30 38.50392 -120.84577 38917 ft 505 kts 175°
2026-04-26 04:31 38.43424 -120.83326 38913 ft 505 kts 175°
2026-04-26 04:31 38.36463 -120.82080 38918 ft 505 kts 175°
2026-04-26 04:32 38.29552 -120.80844 38911 ft 504 kts 175°
2026-04-26 04:32 38.22581 -120.79601 38907 ft 505 kts 175°
2026-04-26 04:33 38.15649 -120.78366 38912 ft 506 kts 175°
2026-04-26 04:33 38.08661 -120.77124 38902 ft 505 kts 175°
2026-04-26 04:34 38.01707 -120.75891 38908 ft 504 kts 175°
2026-04-26 04:34 37.94791 -120.74667 38889 ft 504 kts 175°
2026-04-26 04:35 37.87845 -120.73439 38891 ft 504 kts 175°
2026-04-26 04:35 37.80886 -120.72212 38889 ft 504 kts 175°
2026-04-26 04:36 37.73969 -120.70994 38888 ft 504 kts 175°
2026-04-26 04:36 37.67012 -120.69772 38890 ft 505 kts 175°
2026-04-26 04:37 37.60040 -120.68549 38893 ft 504 kts 175°
2026-04-26 04:37 37.53123 -120.67338 38884 ft 504 kts 175°
2026-04-26 04:38 37.46138 -120.66118 38891 ft 505 kts 175°
2026-04-26 04:38 37.39179 -120.64905 38897 ft 505 kts 175°
2026-04-26 04:39 37.32251 -120.63589 38900 ft 507 kts 170°
2026-04-26 04:39 37.25391 -120.61353 38914 ft 510 kts 168°
2026-04-26 04:40 37.18567 -120.59118 38911 ft 509 kts 169°
2026-04-26 04:40 37.11697 -120.56911 38905 ft 511 kts 168°
2026-04-26 04:41 37.04804 -120.54659 38910 ft 510 kts 169°
2026-04-26 04:41 36.97993 -120.52471 38913 ft 506 kts 169°
2026-04-26 04:42 36.91169 -120.50263 38923 ft 509 kts 169°
2026-04-26 04:42 36.84296 -120.48053 38925 ft 508 kts 169°
2026-04-26 04:43 36.77450 -120.45850 38925 ft 508 kts 169°
2026-04-26 04:43 36.70600 -120.43654 38922 ft 508 kts 169°
2026-04-26 04:44 36.63780 -120.41469 38925 ft 508 kts 169°
2026-04-26 04:44 36.56925 -120.39279 38932 ft 507 kts 169°
2026-04-26 04:45 36.50112 -120.37104 38929 ft 507 kts 169°
2026-04-26 04:45 36.43295 -120.34934 38934 ft 506 kts 169°
2026-04-26 04:46 36.36445 -120.32756 38927 ft 508 kts 169°
2026-04-26 04:46 36.29600 -120.30580 38935 ft 509 kts 169°
2026-04-26 04:47 36.22712 -120.28403 38937 ft 509 kts 169°
2026-04-26 04:47 36.15850 -120.26229 38932 ft 508 kts 170°
2026-04-26 04:48 36.05586 -120.22994 38941 ft 509 kts 170°
2026-04-26 04:48 35.98684 -120.20821 38941 ft 508 kts 170°
2026-04-26 04:49 35.91815 -120.18664 38954 ft 510 kts 170°
2026-04-26 04:49 35.84940 -120.16507 38948 ft 511 kts 170°
2026-04-26 04:50 35.78046 -120.14349 38950 ft 510 kts 170°
2026-04-26 04:50 35.71200 -120.12210 38947 ft 511 kts 170°
2026-04-26 04:51 35.65523 -120.10190 38969 ft 515 kts 161°
2026-04-26 04:51 35.58262 -120.04857 38934 ft 525 kts 149°
2026-04-26 04:52 35.53308 -120.00551 38943 ft 524 kts 152°
2026-04-26 04:52 35.46998 -119.96059 38956 ft 521 kts 155°
2026-04-26 04:53 35.40826 -119.91347 38954 ft 523 kts 152°
2026-04-26 04:53 35.34629 -119.86713 38945 ft 523 kts 154°
2026-04-26 04:54 35.28441 -119.82044 38941 ft 525 kts 149°
2026-04-26 04:54 35.22727 -119.76654 38162 ft 518 kts 147°
2026-04-26 04:55 35.19862 -119.73943 37661 ft 512 kts 148°
2026-04-26 04:55 35.17017 -119.71325 37293 ft 514 kts 148°
2026-04-26 04:55 35.14163 -119.68696 36320 ft 520 kts 147°
2026-04-26 04:55 35.11300 -119.66008 35477 ft 523 kts 147°
2026-04-26 04:56 35.08407 -119.63288 34668 ft 523 kts 147°
2026-04-26 04:56 35.05484 -119.60576 33887 ft 523 kts 147°
2026-04-26 04:56 35.02606 -119.57917 32966 ft 522 kts 147°
2026-04-26 04:56 34.99707 -119.55223 32091 ft 520 kts 147°
2026-04-26 04:57 34.96862 -119.52573 31250 ft 519 kts 147°
2026-04-26 04:57 34.93966 -119.49888 30413 ft 516 kts 147°
2026-04-26 04:57 34.91125 -119.47263 29538 ft 514 kts 148°
2026-04-26 04:57 34.88265 -119.44667 28573 ft 510 kts 148°
2026-04-26 04:58 34.85411 -119.42151 27629 ft 506 kts 149°
2026-04-26 04:58 34.82595 -119.39658 26735 ft 502 kts 148°
2026-04-26 04:58 34.79792 -119.37135 25879 ft 498 kts 148°
2026-04-26 04:58 34.76997 -119.34619 25013 ft 494 kts 148°
2026-04-26 04:59 34.74247 -119.32172 24186 ft 489 kts 148°
2026-04-26 04:59 34.71523 -119.29789 23447 ft 484 kts 148°
2026-04-26 04:59 34.68797 -119.27429 22966 ft 470 kts 148°
2026-04-26 04:59 34.66196 -119.25159 22327 ft 461 kts 148°
2026-04-26 05:00 34.63602 -119.22888 21671 ft 453 kts 148°
2026-04-26 05:00 34.61063 -119.20698 21017 ft 446 kts 149°
2026-04-26 05:00 34.58531 -119.18533 20367 ft 440 kts 149°
2026-04-26 05:00 34.56069 -119.16415 19760 ft 434 kts 148°
2026-04-26 05:01 34.53623 -119.14264 19149 ft 429 kts 147°
2026-04-26 05:01 34.51252 -119.12131 18556 ft 425 kts 147°
2026-04-26 05:01 34.48869 -119.10006 17903 ft 421 kts 148°
2026-04-26 05:01 34.46529 -119.07952 17223 ft 417 kts 148°
2026-04-26 05:02 34.44180 -119.05889 16575 ft 413 kts 148°
2026-04-26 05:02 34.41880 -119.03871 16058 ft 407 kts 148°
2026-04-26 05:02 34.39600 -119.01901 15960 ft 390 kts 149°
2026-04-26 05:02 34.37461 -119.00056 15961 ft 372 kts 149°
2026-04-26 05:03 34.35381 -118.98255 15960 ft 359 kts 149°
2026-04-26 05:03 34.33380 -118.96443 15973 ft 363 kts 146°
2026-04-26 05:03 34.31338 -118.94587 15878 ft 366 kts 149°
2026-04-26 05:03 34.29295 -118.92793 15513 ft 363 kts 148°
2026-04-26 05:04 34.27292 -118.90988 15123 ft 360 kts 148°
2026-04-26 05:04 34.25297 -118.89156 14712 ft 357 kts 147°
2026-04-26 05:04 34.23311 -118.87331 14313 ft 354 kts 147°
2026-04-26 05:04 34.21382 -118.85555 13946 ft 351 kts 147°
2026-04-26 05:05 34.19427 -118.83759 13531 ft 349 kts 147°
2026-04-26 05:05 34.17523 -118.82012 13148 ft 346 kts 147°
2026-04-26 05:05 34.15666 -118.80155 12769 ft 344 kts 142°
2026-04-26 05:05 34.13890 -118.78217 12384 ft 341 kts 143°
2026-04-26 05:06 34.12138 -118.76327 11989 ft 332 kts 143°
2026-04-26 05:06 34.10468 -118.74513 11631 ft 320 kts 142°
2026-04-26 05:06 34.08841 -118.72739 11292 ft 309 kts 143°
2026-04-26 05:06 34.07263 -118.71018 10959 ft 300 kts 142°
2026-04-26 05:07 34.05702 -118.69322 10643 ft 301 kts 143°
2026-04-26 05:07 34.04153 -118.67653 10311 ft 301 kts 141°
2026-04-26 05:07 34.02886 -118.65622 9995 ft 311 kts 117°
2026-04-26 05:07 34.02361 -118.63059 9660 ft 316 kts 97°
2026-04-26 05:08 34.02295 -118.60517 9328 ft 296 kts 93°
2026-04-26 05:08 34.02230 -118.58117 9003 ft 274 kts 97°
2026-04-26 05:08 34.02025 -118.55905 8697 ft 259 kts 101°
2026-04-26 05:08 34.01780 -118.53789 8392 ft 248 kts 101°
2026-04-26 05:09 34.01581 -118.51776 8118 ft 239 kts 99°
2026-04-26 05:09 34.01404 -118.49810 7850 ft 231 kts 99°
2026-04-26 05:09 34.01230 -118.47928 7594 ft 225 kts 99°
2026-04-26 05:09 34.01058 -118.46056 7353 ft 223 kts 96°
2026-04-26 05:10 34.01238 -118.44209 7115 ft 225 kts 78°
2026-04-26 05:10 34.01569 -118.42420 6893 ft 216 kts 77°
2026-04-26 05:10 34.01891 -118.40672 6651 ft 210 kts 78°
2026-04-26 05:10 34.02185 -118.38966 6413 ft 206 kts 78°
2026-04-26 05:11 34.02470 -118.37285 6173 ft 202 kts 78°
2026-04-26 05:11 34.02740 -118.35646 5974 ft 196 kts 83°
2026-04-26 05:11 34.02862 -118.34017 6009 ft 199 kts 83°
2026-04-26 05:11 34.03057 -118.32414 6003 ft 198 kts 83°
2026-04-26 05:12 34.03238 -118.30771 6020 ft 197 kts 83°
2026-04-26 05:12 34.03403 -118.29146 6013 ft 197 kts 84°
2026-04-26 05:12 34.03568 -118.27495 6003 ft 199 kts 84°
2026-04-26 05:12 34.03735 -118.25867 6006 ft 196 kts 84°
2026-04-26 05:13 34.03909 -118.24219 5995 ft 197 kts 84°
2026-04-26 05:13 34.04082 -118.22603 6007 ft 195 kts 84°
2026-04-26 05:13 34.04253 -118.20950 5987 ft 200 kts 83°
2026-04-26 05:13 34.04421 -118.19294 5999 ft 199 kts 83°
2026-04-26 05:14 34.04588 -118.17626 5983 ft 199 kts 84°
2026-04-26 05:14 34.04756 -118.15979 5998 ft 199 kts 83°
2026-04-26 05:14 34.04926 -118.14306 5945 ft 201 kts 83°
2026-04-26 05:14 34.05094 -118.12628 5596 ft 203 kts 83°
2026-04-26 05:15 34.05257 -118.10953 5257 ft 202 kts 83°
2026-04-26 05:15 34.05414 -118.09261 4978 ft 199 kts 83°
2026-04-26 05:15 34.05389 -118.07632 4955 ft 199 kts 112°
2026-04-26 05:15 34.04594 -118.06352 4973 ft 188 kts 152°
2026-04-26 05:16 34.03400 -118.05988 4985 ft 178 kts 192°
2026-04-26 05:16 34.02328 -118.06624 5008 ft 170 kts 226°
2026-04-26 05:16 34.01476 -118.07642 5007 ft 170 kts 229°
2026-04-26 05:16 34.00685 -118.08699 4999 ft 170 kts 233°
2026-04-26 05:17 33.99921 -118.09803 4887 ft 174 kts 233°
2026-04-26 05:17 33.99164 -118.10939 4514 ft 175 kts 237°
2026-04-26 05:17 33.98458 -118.12152 4137 ft 176 kts 237°
2026-04-26 05:17 33.97721 -118.13326 3767 ft 177 kts 234°
2026-04-26 05:18 33.96982 -118.14470 3596 ft 167 kts 234°
2026-04-26 05:18 33.96264 -118.15579 3591 ft 167 kts 234°
2026-04-26 05:18 33.95690 -118.16740 3557 ft 165 kts 262°
2026-04-26 05:18 33.95753 -118.18122 3391 ft 164 kts 269°
2026-04-26 05:19 33.95627 -118.19464 3182 ft 162 kts 270°
2026-04-26 05:19 33.95498 -118.20822 2982 ft 160 kts 264°
2026-04-26 05:19 33.95381 -118.22105 2810 ft 152 kts 261°
2026-04-26 05:19 33.95253 -118.23356 2593 ft 149 kts 263°
2026-04-26 05:20 33.95124 -118.24609 2395 ft 151 kts 263°
2026-04-26 05:20 33.94997 -118.25856 2197 ft 149 kts 263°
2026-04-26 05:20 33.94871 -118.27087 2000 ft 150 kts 263°
2026-04-26 05:20 33.94748 -118.28303 1791 ft 141 kts 262°
2026-04-26 05:21 33.94630 -118.29471 1587 ft 138 kts 262°
2026-04-26 05:21 33.94513 -118.30605 1396 ft 142 kts 262°
2026-04-26 05:21 33.94396 -118.31763 1208 ft 137 kts 262°
2026-04-26 05:21 33.94274 -118.32942 1021 ft 146 kts 261°
2026-04-26 05:22 33.94167 -118.34162 814 ft 148 kts 266°
2026-04-26 05:22 33.94053 -118.35394 601 ft 144 kts 261°
2026-04-26 05:22 33.93924 -118.36554 402 ft 138 kts 263°
2026-04-26 05:22 33.93794 -118.37706 303 ft 137 kts 263°
2026-04-26 05:23 33.93679 -118.38826 140 ft 130 kts 263°
2026-04-26 05:23 33.93589 -118.39645 136 ft 57 kts 263°
2026-04-26 05:23 33.93564 -118.39861 133 ft 3 kts 260°
2026-04-26 05:23 33.93540 -118.39997 132 ft 33 kts 257°
2026-04-26 05:24 33.93478 -118.40212 131 ft 29 kts 238°
2026-04-26 05:24 33.93433 -118.40289 131 ft 0 kts 236°
2026-04-26 05:24 33.93415 -118.40325 130 ft 12 kts 237°
2026-04-26 05:24 33.93343 -118.40375 132 ft 8 kts 190°
2026-04-26 05:25 33.93311 -118.40372 132 ft 0 kts 168°